Location: Bonnesvalyn
(49.1218°N, 3.3177°E)
Time: 08:21:38
(UTC+00:00)

USA 215 - Pass Details

Date: 09 February 2023
Orbit: 1097 x 1110 km, 123.0° (Epoch: 21 March)

Event Time Altitude Azimuth Distance (km) Brightness Sun altitude
Exits shadow 19:09:53 - 156° (SSE) 3,174 5.4 -22.2°
Reaches altitude 10° 19:10:31 10° 158° (SSE) 2,954 5.3 -22.3°
Maximum altitude 19:16:36 41° 227° (SW) 1,549 4.3 -23.3°
Drops below altitude 10° 19:22:42 10° 296° (WNW) 2,960 6.4 -24.3°
Sets 19:25:22 0° 304° (WNW) 3,919 7.2 -24.7°
